Location: High Cliff State Park
(44.1557°N, 88.2948°W)
Time: 06:24:26
(UTC-06:00)

Amateur Radio Satellites - All Passes

Search period start: 08 February 2016 05:54
Search period end: 09 February 2016 05:54
Location: High Cliff State Park, 44.1557°N, 88.2948°W

Satellite Date Start Highest point End Downlink Frequencies (MHz)
Time Altitude Azimuth
STRAND 1 08 Feb 06:01:40 06:06:45 74° 73° (ENE) 06:11:53 437.568
BRITE-PL 08 Feb 06:03:59 06:08:16 30° 94° (E) 06:12:14 437.365/2234.400
Cosmos 2504 08 Feb 06:06:07 06:14:21 49° 287° (WNW) 06:22:56 435.465 / 435.565
CUTE-I 08 Feb 06:12:48 06:18:11 67° 102° (ESE) 06:23:32 437.470
CUBESAT XI-V 08 Feb 06:14:03 06:16:20 13° 271° (W) 06:18:37 437.345
Cubesat XI-IV 08 Feb 06:25:52 06:31:18 86° 105° (ESE) 06:36:41 437.490
LilacSat-2 08 Feb 06:37:44 06:41:29 60° 285° (WNW) 06:45:12 437.200
GONETS M04 08 Feb 06:50:13 06:51:58 11° 70° (ENE) 06:53:44
PHONESAT 2.4 08 Feb 06:55:17 06:56:20 11° 210° (SSW) 06:57:24 2401.200-2431.200
PRISM 08 Feb 07:02:48 07:06:57 81° 257° (WSW) 07:11:10 437.425
AO-7 08 Feb 07:09:30 07:11:55 12° 323° (NW) 07:14:21 29.400- 29.500
DOVE 4 08 Feb 07:11:13 07:15:12 35° 97° (E) 07:19:01 437.250
SO-50 08 Feb 07:13:34 07:17:10 20° 324° (NW) 07:20:46 436.795
GOMX 1 08 Feb 07:19:54 07:24:28 89° 79° (ENE) 07:28:44 467.674
CUTE 1.7 + AOD 2 08 Feb 07:33:13 07:36:51 26° 95° (E) 07:40:28 437.475
COMPASS 1 08 Feb 07:33:24 07:35:51 15° 91° (E) 07:38:17 437.405
HO-68 08 Feb 07:39:48 07:46:30 40° 97° (E) 07:53:09 435.675
BRITE-PL 08 Feb 07:42:27 07:46:42 30° 294° (WNW) 07:50:40 437.365/2234.400
SEEDS 08 Feb 07:43:08 07:46:41 25° 94° (E) 07:50:14 437.485
STRAND 1 08 Feb 07:43:45 07:46:29 14° 271° (W) 07:49:13 437.568
CUTE-I 08 Feb 07:54:01 07:57:42 19° 300° (WNW) 08:01:22 437.470
AAUSAT CUBESAT 2 08 Feb 08:03:07 08:06:38 25° 95° (E) 08:10:08 437.432
ANTELSAT 08 Feb 08:06:56 08:08:51 13° 61° (ENE) 08:10:46 437.575/2403.000
Cubesat XI-IV 08 Feb 08:07:39 08:10:39 15° 303° (WNW) 08:13:37 437.490
Cosmos 2504 08 Feb 08:08:36 08:10:24 11° 312° (NW) 08:12:13 435.465 / 435.565
TIGRISAT 08 Feb 08:14:01 08:16:22 14° 62° (ENE) 08:18:41 435.000
CANX-2 08 Feb 08:17:29 08:21:48 90° 14° (NNE) 08:26:06 2200.000
FUNcube-1 08 Feb 08:18:52 08:20:20 12° 89° (E) 08:21:48 145.935
O/OREOS (USA 219) 08 Feb 08:19:25 08:23:53 88° 123° (ESE) 08:28:26 437.305
CINEMA 3 08 Feb 08:19:43 08:23:52 68° 101° (E) 08:28:00 145.822/145.860
GONETS M04 08 Feb 08:38:20 08:46:47 61° 91° (E) 08:55:19
CUBEBUG 2 08 Feb 08:39:40 08:43:36 40° 98° (E) 08:47:35 437.445
UWE-3 08 Feb 08:44:35 08:48:23 33° 97° (E) 08:52:14 435.000/436.395/437.385
DOVE 4 08 Feb 08:49:26 08:52:42 21° 295° (WNW) 08:55:53 437.250
Oscar 11 08 Feb 08:52:47 08:56:50 37° 97° (E) 09:00:52 145.826/435.025
UNISAT 6 08 Feb 08:55:58 08:59:59 39° 71° (ENE) 09:03:59 437.425
GOMX 1 08 Feb 09:00:53 09:01:44 10° 303° (WNW) 09:02:36 467.674
COMPASS 1 08 Feb 09:07:37 09:11:43 51° 287° (WNW) 09:15:49 437.405
CUTE 1.7 + AOD 2 08 Feb 09:08:57 09:12:41 30° 291° (WNW) 09:16:24 437.475
SEEDS 08 Feb 09:18:41 09:22:24 30° 291° (WNW) 09:26:07 437.485
Cosmos 2499 08 Feb 09:19:28 09:27:44 51° 89° (E) 09:36:12 435.465 / 435.565
RS-15 08 Feb 09:24:13 09:28:19 13° 92° (E) 09:32:29 29.354- 29.394
HO-68 08 Feb 09:27:31 09:34:15 44° 296° (WNW) 09:40:57 435.675
DELFI C3 08 Feb 09:31:38 09:35:37 54° 100° (E) 09:39:35 145.870
POLYITAN 1 08 Feb 09:31:39 09:35:06 24° 67° (ENE) 09:38:32 437.675
QB50P2 08 Feb 09:32:20 09:35:50 26° 67° (ENE) 09:39:20 145.880/145.840
AAUSAT CUBESAT 2 08 Feb 09:38:28 09:42:07 29° 292° (WNW) 09:45:46 437.432
ANTELSAT 08 Feb 09:40:44 09:45:02 69° 257° (WSW) 09:49:19 437.575/2403.000
ZACube-1 08 Feb 09:42:45 09:46:57 80° 284° (WNW) 09:51:13 437.345
BUGSAT 1 08 Feb 09:45:40 09:48:29 18° 64° (ENE) 09:51:16 437.445
TIGRISAT 08 Feb 09:48:19 09:52:36 60° 259° (WSW) 09:56:50 435.000
FUNcube-1 08 Feb 09:52:51 09:57:00 65° 286° (WNW) 10:01:13 145.935
CANX-2 08 Feb 09:56:37 09:56:58 10° 301° (WNW) 09:57:19 2200.000
CINEMA 3 08 Feb 09:58:53 10:00:29 12° 299° (WNW) 10:02:05 145.822/145.860
POPSAT HIP 1 08 Feb 10:01:52 10:05:58 49° 72° (ENE) 10:10:03 437.405
O/OREOS (USA 219) 08 Feb 10:01:57 10:04:00 13° 313° (NW) 10:06:04 437.305
AISAT 08 Feb 10:07:28 10:08:54 11° 89° (E) 10:10:20 437.250
NANOSAT C BR1 08 Feb 10:07:42 10:11:50 55° 73° (ENE) 10:15:59 145.865
50 SAT 08 Feb 10:08:06 10:09:37 12° 91° (E) 10:11:09 437.505
DUCHIFAT 1 08 Feb 10:09:58 10:14:06 56° 73° (ENE) 10:18:14 145.980
QB50P1 08 Feb 10:14:34 10:18:47 69° 74° (ENE) 10:23:00 145.935-145.965
CUBEBUG 2 08 Feb 10:17:01 10:20:00 19° 295° (WNW) 10:23:01 437.445
HUMSAT D 08 Feb 10:17:24 10:21:34 74° 102° (ESE) 10:25:46 437.325/437.525
ESTCUBE 1 08 Feb 10:20:32 10:23:42 18° 92° (E) 10:26:50 437.505/2401.250
UWE-3 08 Feb 10:21:25 10:24:43 23° 293° (WNW) 10:28:04 435.000/436.395/437.385
UKube-1 08 Feb 10:29:17 10:32:09 17° 92° (E) 10:34:59 .
Oscar 11 08 Feb 10:29:23 10:32:45 22° 294° (WNW) 10:36:07 145.826/435.025
AO-85 08 Feb 10:30:48 10:36:02 58° 119° (ESE) 10:41:26 145.980
CUBEBUG 1 08 Feb 10:31:18 10:34:10 17° 92° (E) 10:37:00 437.445
UNISAT 6 08 Feb 10:33:41 10:36:52 20° 267° (W) 10:40:03 437.425
AIST 1 08 Feb 10:34:30 10:38:52 70° 97° (E) 10:43:17
GONETS M04 08 Feb 10:36:36 10:44:08 32° 293° (WNW) 10:51:47
DX 1 08 Feb 10:37:30 10:41:05 24° 95° (E) 10:44:38 434.975-435.025
JAS-2 08 Feb 10:49:14 10:53:28 16° 55° (NE) 10:57:30 435.910
PCSat 08 Feb 11:00:51 11:06:13 66° 117° (ESE) 11:11:36 145.827
POLYITAN 1 08 Feb 11:07:00 11:10:48 31° 264° (W) 11:14:36 437.675
QB50P2 08 Feb 11:07:48 11:11:33 30° 264° (W) 11:15:20 145.880/145.840
DELFI C3 08 Feb 11:07:54 11:10:06 14° 297° (WNW) 11:12:18 145.870
Cosmos 2499 08 Feb 11:12:58 11:21:03 41° 290° (WNW) 11:29:20 435.465 / 435.565
BUGSAT 1 08 Feb 11:19:29 11:23:33 46° 261° (W) 11:27:35 437.445
VELOX 1 08 Feb 11:25:06 11:29:32 73° 102° (ESE) 11:33:56 145.980
RS-15 08 Feb 11:27:07 11:37:56 62° 115° (ESE) 11:49:22 29.354- 29.394
POPSAT HIP 1 08 Feb 11:39:27 11:42:03 16° 269° (W) 11:44:38 437.405
50 SAT 08 Feb 11:40:16 11:43:58 52° 286° (WNW) 11:47:40 437.505
AISAT 08 Feb 11:41:30 11:45:54 72° 286° (WNW) 11:50:17 437.250
NANOSAT C BR1 08 Feb 11:45:44 11:47:56 14° 269° (W) 11:50:08 145.865
Oscar 19 08 Feb 11:46:30 11:51:18 39° 68° (ENE) 11:56:06 437.125/150
DUCHIFAT 1 08 Feb 11:48:01 11:50:09 14° 269° (W) 11:52:19 145.980
QB50P1 08 Feb 11:53:42 11:55:01 11° 271° (W) 11:56:21 145.935-145.965
HUMSAT D 08 Feb 11:55:12 11:56:40 12° 299° (WNW) 11:58:07 437.325/437.525
ESTCUBE 1 08 Feb 11:56:23 12:00:47 48° 289° (WNW) 12:05:08 437.505/2401.250
Gurwin Techsat 1B 08 Feb 12:04:17 12:08:25 24° 63° (ENE) 12:12:35 435.225
UKube-1 08 Feb 12:04:18 12:08:28 47° 289° (WNW) 12:12:35 .
CUSAT 1 08 Feb 12:06:27 12:12:28 43° 70° (ENE) 12:17:05 437.405
CUBEBUG 1 08 Feb 12:06:30 12:10:44 48° 289° (WNW) 12:14:55 437.445
AO-85 08 Feb 12:12:11 12:16:56 29° 319° (NW) 12:21:44 145.980
DX 1 08 Feb 12:13:24 12:17:19 33° 292° (WNW) 12:21:11 434.975-435.025
AIST 1 08 Feb 12:15:16 12:17:01 12° 294° (WNW) 12:18:46
SPROUT 08 Feb 12:16:25 12:20:43 82° 103° (ESE) 12:24:58 437.525
SO-50 08 Feb 12:21:35 12:25:18 21° 37° (NE) 12:28:57 436.795
DANDE 08 Feb 12:24:27 12:31:27 40° 68° (ENE) 12:36:57 436.750
JAS-2 08 Feb 12:29:50 12:37:30 72° 73° (ENE) 12:44:31 435.910
TISAT 1 08 Feb 12:32:15 12:36:16 44° 99° (E) 12:40:15 437.305
AO-7 08 Feb 12:32:25 12:37:47 19° 46° (NE) 12:43:08 29.400- 29.500
PCSat 08 Feb 12:45:44 12:50:05 24° 317° (NW) 12:54:28 145.827
ITAMSAT 1 08 Feb 12:51:45 12:56:20 33° 66° (ENE) 13:00:57 435.822/435.867
VELOX 1 08 Feb 13:03:23 13:05:26 13° 300° (WNW) 13:07:29 145.980
SWISSCUBE 08 Feb 13:19:43 13:23:55 29° 96° (E) 13:28:06 437.505
YUBILEINY 08 Feb 13:21:53 13:30:05 40° 70° (ENE) 13:38:12 435.215
Oscar 19 08 Feb 13:26:17 13:30:42 28° 265° (W) 13:35:08 437.125/150
Cosmos 2491 08 Feb 13:31:28 13:37:12 20° 77° (ENE) 13:42:56 435.465 / 435.565
RS-15 08 Feb 13:40:02 13:50:51 49° 321° (NW) 14:02:19 29.354- 29.394
Gurwin Techsat 1B 08 Feb 13:42:53 13:48:02 51° 260° (W) 13:53:14 435.225
CUSAT 1 08 Feb 13:49:23 13:54:18 26° 277° (W) 13:58:17 437.405
SPROUT 08 Feb 13:54:52 13:56:03 11° 300° (WNW) 13:57:14 437.525
ITUPSAT 1 08 Feb 13:55:17 14:00:03 58° 101° (E) 14:04:48 437.325
AO-85 08 Feb 13:58:25 13:59:18 10° 341° (NNW) 14:00:10 145.980
SO-50 08 Feb 14:01:30 14:06:20 72° 238° (WSW) 14:10:59 436.795
BEESAT 08 Feb 14:04:51 14:09:40 74° 104° (ESE) 14:14:27 436.000
Cosmos 2504 08 Feb 14:05:08 14:10:27 17° 56° (NE) 14:15:36 435.465 / 435.565
DANDE 08 Feb 14:07:44 14:14:20 38° 273° (W) 14:19:35 436.750
TISAT 1 08 Feb 14:08:47 14:11:37 18° 296° (WNW) 14:14:27 437.305
M-CUBED/EXP-1 PRIME 08 Feb 14:16:43 14:20:01 32° 66° (ENE) 14:23:08 437.505
JAS-2 08 Feb 14:16:56 14:22:56 25° 268° (W) 14:28:38 435.910
AO-7 08 Feb 14:20:52 14:29:10 72° 67° (ENE) 14:37:30 29.400- 29.500
AUBIESAT-1 08 Feb 14:27:55 14:31:17 36° 66° (ENE) 14:34:28 437.475
ITAMSAT 1 08 Feb 14:31:04 14:35:45 34° 263° (W) 14:40:29 435.822/435.867
KKS-1 08 Feb 14:34:50 14:38:17 22° 94° (E) 14:41:42 437.445
SWISSCUBE 08 Feb 14:57:25 15:01:43 33° 293° (WNW) 15:05:59 437.505
HORYU 2 08 Feb 15:00:52 15:05:06 47° 71° (ENE) 15:09:21 437.375
YUBILEINY 08 Feb 15:18:40 15:27:04 50° 271° (W) 15:35:25 435.215
Cosmos 2491 08 Feb 15:24:05 15:32:49 88° 277° (W) 15:41:36 435.465 / 435.565
ITUPSAT 1 08 Feb 15:34:13 15:37:27 18° 299° (WNW) 15:40:41 437.325
BEESAT 08 Feb 15:44:14 15:46:52 15° 301° (WNW) 15:49:29 436.000
M-CUBED/EXP-1 PRIME 08 Feb 15:52:16 15:54:44 17° 260° (W) 15:57:07 437.505
MOZHAYETS 4 08 Feb 15:52:30 15:57:06 57° 100° (E) 16:01:40
Cosmos 2504 08 Feb 15:56:51 16:05:37 75° 80° (E) 16:13:46 435.465 / 435.565
RS-15 08 Feb 15:57:37 16:07:11 28° 354° (N) 16:17:05 29.354- 29.394
STARS 08 Feb 15:57:44 16:02:08 88° 109° (ESE) 16:06:30 437.465
CUTE-I 08 Feb 15:58:27 16:02:05 19° 60° (ENE) 16:05:45 437.470
AUBIESAT-1 08 Feb 16:03:45 16:05:59 15° 260° (W) 16:08:07 437.475
ISS 08 Feb 16:10:34 16:13:40 43° 142° (SE) 16:16:47 145.825
KKS-1 08 Feb 16:10:53 16:14:59 38° 291° (WNW) 16:19:04 437.445
Cubesat XI-IV 08 Feb 16:11:01 16:15:11 24° 62° (ENE) 16:19:23 437.490
AO-7 08 Feb 16:15:48 16:22:35 27° 266° (W) 16:29:26 29.400- 29.500
CUBESAT XI-V 08 Feb 16:30:11 16:33:02 16° 90° (E) 16:35:52 437.345
HORYU 2 08 Feb 16:38:57 16:41:56 18° 268° (W) 16:44:56 437.375
O/OREOS (USA 219) 08 Feb 16:49:02 16:52:54 26° 56° (NE) 16:56:46 437.305
GOMX 1 08 Feb 16:52:48 16:56:06 17° 62° (ENE) 16:59:19 467.674
BRITE-PL 08 Feb 17:14:43 17:20:07 46° 70° (ENE) 17:25:25 437.365/2234.400
LilacSat-2 08 Feb 17:20:53 17:24:43 79° 76° (ENE) 17:28:32 437.200
AO-85 08 Feb 17:21:58 17:25:26 17° 31° (NNE) 17:28:45 145.980
Cosmos 2491 08 Feb 17:24:54 17:31:00 21° 300° (WNW) 17:37:10 435.465 / 435.565
MOZHAYETS 4 08 Feb 17:30:49 17:33:50 17° 298° (WNW) 17:36:50
BEESAT 3 08 Feb 17:32:45 17:36:44 83° 125° (SE) 17:40:45 437.485
CUTE-I 08 Feb 17:36:20 17:41:37 66° 258° (WSW) 17:46:57 437.470
STARS 08 Feb 17:36:48 17:37:49 11° 302° (WNW) 17:38:50 437.465
ISS 08 Feb 17:47:10 17:50:11 34° 340° (NNW) 17:53:12 145.825
Cubesat XI-IV 08 Feb 17:49:46 17:54:56 51° 260° (W) 18:00:09 437.490
Cosmos 2504 08 Feb 17:51:31 17:58:02 25° 281° (W) 18:04:17 435.465 / 435.565
BEESAT 2 08 Feb 17:54:16 17:58:17 89° 157° (SSE) 18:02:21 435.950
AIST 2 08 Feb 18:02:54 18:04:36 12° 109° (ESE) 18:06:17 435.215
PCSat 08 Feb 18:04:57 18:08:18 16° 36° (NE) 18:11:38 145.827
CUBESAT XI-V 08 Feb 18:06:09 18:10:49 59° 287° (WNW) 18:15:24 437.345
HO-68 08 Feb 18:10:11 18:16:33 36° 61° (ENE) 18:22:55 435.675
STRAND 1 08 Feb 18:11:20 18:15:20 22° 93° (E) 18:19:18 437.568
RS-15 08 Feb 18:13:27 18:24:19 37° 28° (NNE) 18:35:26 29.354- 29.394
DOVE 4 08 Feb 18:17:12 18:22:07 48° 72° (ENE) 18:26:47 437.250
COMPASS 1 08 Feb 18:26:37 18:28:36 13° 62° (ENE) 18:30:35 437.405
CUTE 1.7 + AOD 2 08 Feb 18:27:40 18:31:00 23° 67° (ENE) 18:34:22 437.475
GOMX 1 08 Feb 18:28:10 18:33:37 76° 258° (WSW) 18:38:51 467.674
O/OREOS (USA 219) 08 Feb 18:28:11 18:32:24 37° 254° (WSW) 18:36:36 437.305
SEEDS 08 Feb 18:36:43 18:39:57 22° 66° (ENE) 18:43:12 437.485
PRISM 08 Feb 18:44:56 18:46:44 12° 90° (E) 18:48:33 437.425
GONETS M04 08 Feb 18:46:45 18:54:29 33° 67° (ENE) 19:02:12
BRITE-PL 08 Feb 18:53:53 18:58:43 28° 267° (W) 19:03:28 437.365/2234.400
AAUSAT CUBESAT 2 08 Feb 18:55:18 18:58:27 21° 66° (ENE) 19:01:37 437.432
AO-85 08 Feb 19:01:43 19:06:58 72° 53° (NE) 19:11:45 145.980
Cosmos 2499 08 Feb 19:10:14 19:16:11 20° 59° (ENE) 19:21:50 435.465 / 435.565
CANX-2 08 Feb 19:11:28 19:15:39 76° 76° (ENE) 19:19:53 2200.000
BEESAT 3 08 Feb 19:12:43 19:15:02 15° 323° (NW) 19:17:22 437.485
FUNcube-1 08 Feb 19:16:33 19:18:09 12° 61° (ENE) 19:19:45 145.935
CINEMA 3 08 Feb 19:22:18 19:26:58 76° 74° (ENE) 19:31:25 145.822/145.860
ISS 08 Feb 19:24:43 19:27:17 21° 0° (N) 19:29:50 145.825
BEESAT 2 08 Feb 19:34:33 19:36:47 14° 323° (NW) 19:39:02 435.950
AIST 2 08 Feb 19:38:21 19:42:32 72° 307° (NW) 19:46:43 435.215
CUBEBUG 2 08 Feb 19:39:11 19:43:15 40° 71° (ENE) 19:47:14 437.445
UWE-3 08 Feb 19:43:09 19:46:58 32° 70° (ENE) 19:50:44 435.000/436.395/437.385
PCSat 08 Feb 19:47:14 19:52:41 72° 57° (ENE) 19:58:06 145.827
Oscar 11 08 Feb 19:48:57 19:52:51 34° 69° (ENE) 19:56:46 145.826/435.025
STRAND 1 08 Feb 19:49:47 19:54:46 49° 290° (WNW) 19:59:42 437.568
DOVE 4 08 Feb 19:56:06 20:00:00 22° 267° (W) 20:03:45 437.250
HO-68 08 Feb 19:57:07 20:04:02 50° 260° (W) 20:11:01 435.675
COMPASS 1 08 Feb 19:59:33 20:03:39 63° 259° (WSW) 20:07:49 437.405
CUTE 1.7 + AOD 2 08 Feb 20:02:54 20:06:42 33° 264° (W) 20:10:33 437.475
SEEDS 08 Feb 20:11:39 20:15:29 34° 263° (W) 20:19:20 437.485
PRISM 08 Feb 20:18:20 20:22:29 61° 287° (WNW) 20:26:34 437.425
DELFI C3 08 Feb 20:19:22 20:23:03 38° 71° (ENE) 20:26:47 145.870
RS-15 08 Feb 20:26:26 20:38:40 87° 57° (ENE) 20:51:03 29.354- 29.394
AAUSAT CUBESAT 2 08 Feb 20:29:58 20:33:45 35° 263° (W) 20:37:35 437.432
ZACube-1 08 Feb 20:39:51 20:44:05 86° 260° (W) 20:48:16 437.345
AIST 1 08 Feb 20:40:43 20:44:01 20° 71° (ENE) 20:47:16
GONETS M04 08 Feb 20:43:14 20:51:48 61° 269° (W) 21:00:25
AO-85 08 Feb 20:43:43 20:46:47 16° 253° (WSW) 20:49:42 145.980
FUNcube-1 08 Feb 20:49:41 20:53:52 70° 257° (WSW) 20:58:02 145.935
ISS 08 Feb 21:01:20 21:04:22 35° 20° (NNE) 21:07:23 145.825
Cosmos 2499 08 Feb 21:02:09 21:10:43 88° 79° (E) 21:18:36 435.465 / 435.565
CINEMA 3 08 Feb 21:03:00 21:04:33 11° 271° (W) 21:06:04 145.822/145.860
AISAT 08 Feb 21:06:12 21:08:35 14° 61° (ENE) 21:10:56 437.250
HUMSAT D 08 Feb 21:10:07 21:14:07 60° 74° (ENE) 21:18:10 437.325/437.525
CUBEBUG 2 08 Feb 21:16:58 21:20:03 19° 267° (W) 21:23:06 437.445
AIST 2 08 Feb 21:19:49 21:21:47 13° 326° (NW) 21:23:44 435.215
UWE-3 08 Feb 21:20:05 21:23:30 23° 266° (W) 21:26:52 435.000/436.395/437.385
ESTCUBE 1 08 Feb 21:21:38 21:25:01 21° 64° (ENE) 21:28:26 437.505/2401.250
UKube-1 08 Feb 21:25:29 21:28:32 19° 63° (ENE) 21:31:35 .
Oscar 11 08 Feb 21:25:41 21:29:04 22° 266° (W) 21:32:29 145.826/435.025
CUBEBUG 1 08 Feb 21:28:52 21:31:57 19° 63° (ENE) 21:35:01 437.445
ANTELSAT 08 Feb 21:31:22 21:34:39 21° 94° (E) 21:37:58 437.575/2403.000
PCSat 08 Feb 21:32:01 21:35:28 17° 255° (WSW) 21:38:54 145.827
DX 1 08 Feb 21:34:26 21:38:07 27° 66° (ENE) 21:41:48 434.975-435.025
TIGRISAT 08 Feb 21:38:33 21:42:02 23° 94° (E) 21:45:33 435.000
DELFI C3 08 Feb 21:55:26 21:58:09 18° 268° (W) 22:00:52 145.870
AIST 1 08 Feb 22:17:44 22:21:45 37° 269° (W) 22:25:43
50 SAT 08 Feb 22:21:39 22:25:20 88° 248° (WSW) 22:29:05 437.505
UNISAT 6 08 Feb 22:22:09 22:26:29 72° 102° (ESE) 22:30:52 437.425
VELOX 1 08 Feb 22:23:35 22:28:02 78° 76° (ENE) 22:32:32 145.980
ISS 08 Feb 22:37:46 22:40:52 42° 218° (SW) 22:43:57 145.825
AISAT 08 Feb 22:40:04 22:44:32 68° 258° (WSW) 22:49:00 437.250
RS-15 08 Feb 22:40:10 22:49:44 29° 258° (WSW) 22:59:25 29.354- 29.394
GONETS M04 08 Feb 22:44:41 22:46:38 11° 290° (WNW) 22:48:37
HUMSAT D 08 Feb 22:48:40 22:50:11 12° 270° (W) 22:51:43 437.325/437.525
POLYITAN 1 08 Feb 22:50:09 22:54:00 35° 97° (E) 22:57:52 437.675
QB50P2 08 Feb 22:50:50 22:54:45 36° 98° (E) 22:58:39 145.880/145.840
Cosmos 2499 08 Feb 22:57:06 23:02:32 19° 284° (WNW) 23:07:45 435.465 / 435.565
ESTCUBE 1 08 Feb 22:57:15 23:01:33 43° 261° (W) 23:05:54 437.505/2401.250
UKube-1 08 Feb 23:00:07 23:04:17 45° 261° (W) 23:08:28 .
BUGSAT 1 08 Feb 23:00:26 23:03:34 21° 94° (E) 23:06:39 437.445
CUBEBUG 1 08 Feb 23:03:35 23:07:53 48° 261° (W) 23:12:13 437.445
ANTELSAT 08 Feb 23:07:30 23:11:31 38° 290° (WNW) 23:15:35 437.575/2403.000
DX 1 08 Feb 23:10:19 23:14:12 31° 263° (W) 23:18:08 434.975-435.025
SPROUT 08 Feb 23:11:17 23:15:34 75° 75° (ENE) 23:19:53 437.525
TIGRISAT 08 Feb 23:14:55 23:18:48 34° 291° (WNW) 23:22:44 435.000
POPSAT HIP 1 08 Feb 23:20:44 23:24:57 75° 103° (ESE) 23:29:08 437.405
TISAT 1 08 Feb 23:25:18 23:29:16 40° 70° (ENE) 23:33:13 437.305
NANOSAT C BR1 08 Feb 23:26:13 23:30:26 85° 101° (E) 23:34:37 145.865
DUCHIFAT 1 08 Feb 23:28:12 23:32:24 85° 102° (ESE) 23:36:35 145.980
ITUPSAT 1 08 Feb 23:29:57 23:31:06 11° 56° (ENE) 23:32:15 437.325
QB50P1 08 Feb 23:33:31 23:37:44 78° 286° (WNW) 23:41:55 145.935-145.965
BEESAT 08 Feb 23:38:01 23:40:14 13° 58° (ENE) 23:42:28 436.000
Cosmos 2491 08 Feb 23:40:11 23:41:41 10° 49° (NE) 23:43:10 435.465 / 435.565
Oscar 19 08 Feb 23:58:43 00:00:23 11° 87° (E) 00:02:01 437.125/150
UNISAT 6 09 Feb 00:00:46 00:02:40 13° 299° (WNW) 00:04:34 437.425
VELOX 1 09 Feb 00:03:56 00:05:04 11° 272° (W) 00:06:13 145.980
BEESAT 3 09 Feb 00:12:49 00:14:38 13° 35° (NE) 00:16:26 437.485
POLYITAN 1 09 Feb 00:26:23 00:29:39 22° 294° (WNW) 00:32:54 437.675
QB50P2 09 Feb 00:27:10 00:30:22 21° 295° (WNW) 00:33:33 145.880/145.840
SWISSCUBE 09 Feb 00:27:31 00:31:57 40° 69° (ENE) 00:36:25 437.505
BEESAT 2 09 Feb 00:34:45 00:36:50 14° 36° (NE) 00:38:54 435.950
BUGSAT 1 09 Feb 00:35:24 00:39:01 32° 291° (WNW) 00:42:37 437.445
SPROUT 09 Feb 00:51:11 00:52:04 11° 272° (W) 00:52:57 437.525
POPSAT HIP 1 09 Feb 00:58:41 01:00:09 12° 300° (WNW) 01:01:37 437.405
TISAT 1 09 Feb 01:02:05 01:05:06 19° 267° (W) 01:08:08 437.305
ITUPSAT 1 09 Feb 01:03:21 01:08:07 80° 75° (ENE) 01:12:56 437.325
NANOSAT C BR1 09 Feb 01:04:48 01:05:32 10° 301° (WNW) 01:06:15 145.865
DUCHIFAT 1 09 Feb 01:06:50 01:07:27 10° 301° (WNW) 01:08:05 145.980
CUSAT 1 09 Feb 01:08:02 01:15:36 51° 92° (E) 01:23:19 437.405
PHONESAT 2.4 09 Feb 01:09:05 01:11:25 18° 156° (SSE) 01:13:44 2401.200-2431.200
BEESAT 09 Feb 01:12:36 01:17:22 82° 256° (WSW) 01:22:10 436.000
STARS 09 Feb 01:23:02 01:24:18 11° 59° (ENE) 01:25:33 437.465
JAS-2 09 Feb 01:24:00 01:29:36 50° 98° (E) 01:34:43 435.910
DANDE 09 Feb 01:31:59 01:39:14 46° 89° (E) 01:47:13 436.750
Cosmos 2491 09 Feb 01:32:37 01:41:06 51° 74° (ENE) 01:49:33 435.465 / 435.565
KKS-1 09 Feb 01:34:21 01:38:00 25° 66° (ENE) 01:41:39 437.445
Oscar 19 09 Feb 01:35:14 01:40:24 89° 288° (WNW) 01:45:31 437.125/150
BEESAT 3 09 Feb 01:49:05 01:53:05 78° 55° (NE) 01:57:00 437.485
Gurwin Techsat 1B 09 Feb 01:57:17 02:02:33 57° 100° (E) 02:07:47 435.225
SWISSCUBE 09 Feb 02:06:05 02:09:54 24° 266° (W) 02:13:45 437.505
BEESAT 2 09 Feb 02:11:20 02:15:21 86° 55° (NE) 02:19:20 435.950
AIST 2 09 Feb 02:20:51 02:23:40 17° 39° (NE) 02:26:28 435.215
AO-7 09 Feb 02:22:11 02:27:56 20° 90° (E) 02:33:39 29.400- 29.500
YUBILEINY 09 Feb 02:24:50 02:32:52 42° 86° (E) 02:40:58 435.215
ITAMSAT 1 09 Feb 02:41:35 02:46:51 76° 104° (ESE) 02:52:05 435.822/435.867
ITUPSAT 1 09 Feb 02:44:51 02:46:33 12° 272° (W) 02:48:16 437.325
PHONESAT 2.4 09 Feb 02:45:08 02:48:14 39° 173° (S) 02:51:20 2401.200-2431.200
Cosmos 2504 09 Feb 02:49:45 02:52:22 12° 70° (ENE) 02:55:02 435.465 / 435.565
CUSAT 1 09 Feb 02:50:37 02:58:04 41° 290° (WNW) 03:05:33 437.405
STARS 09 Feb 02:55:34 02:59:59 87° 257° (WSW) 03:04:25 437.465
MOZHAYETS 4 09 Feb 02:55:39 03:00:09 63° 74° (ENE) 03:04:43
JAS-2 09 Feb 03:09:45 03:14:18 24° 300° (WNW) 03:18:33 435.910
KKS-1 09 Feb 03:10:21 03:14:25 34° 263° (W) 03:18:31 437.445
DANDE 09 Feb 03:14:49 03:22:15 45° 290° (WNW) 03:30:21 436.750
Oscar 19 09 Feb 03:16:36 03:18:58 13° 303° (WNW) 03:21:20 437.125/150
M-CUBED/EXP-1 PRIME 09 Feb 03:29:23 03:31:41 17° 100° (E) 03:34:04 437.505
Cosmos 2491 09 Feb 03:29:53 03:37:41 38° 275° (W) 03:45:30 435.465 / 435.565
BEESAT 3 09 Feb 03:29:55 03:30:12 10° 252° (WSW) 03:30:29 437.485
CUBESAT XI-V 09 Feb 03:34:57 03:38:16 19° 63° (ENE) 03:41:36 437.345
Gurwin Techsat 1B 09 Feb 03:38:08 03:42:06 22° 298° (WNW) 03:46:02 435.225
AUBIESAT-1 09 Feb 03:39:56 03:42:29 19° 101° (E) 03:45:06 437.475
AIST 2 09 Feb 03:58:30 04:02:38 70° 238° (WSW) 04:06:42 435.215
AO-7 09 Feb 04:13:22 04:21:45 89° 290° (WNW) 04:30:04 29.400- 29.500
SO-50 09 Feb 04:17:18 04:21:25 27° 113° (ESE) 04:25:34 436.795
YUBILEINY 09 Feb 04:21:14 04:29:35 46° 288° (WNW) 04:38:01 435.215
PHONESAT 2.4 09 Feb 04:22:09 04:25:14 37° 189° (S) 04:28:17 2401.200-2431.200
ITAMSAT 1 09 Feb 04:22:29 04:25:42 17° 301° (WNW) 04:28:54 435.822/435.867
HORYU 2 09 Feb 04:26:29 04:30:56 77° 103° (ESE) 04:35:23 437.375
Cosmos 2504 09 Feb 04:35:24 04:43:46 61° 91° (E) 04:52:28 435.465 / 435.565
MOZHAYETS 4 09 Feb 04:35:25 04:37:46 14° 271° (W) 04:40:09
M-CUBED/EXP-1 PRIME 09 Feb 05:03:28 05:06:25 29° 295° (WNW) 05:09:29 437.505
DANDE 09 Feb 05:05:27 05:07:38 11° 312° (NW) 05:09:50 436.750
CUBESAT XI-V 09 Feb 05:10:43 05:15:16 51° 261° (W) 05:19:54 437.345
AUBIESAT-1 09 Feb 05:14:09 05:17:05 27° 295° (WNW) 05:20:08 437.475
BRITE-PL 09 Feb 05:21:23 05:22:33 11° 85° (E) 05:23:43 437.365/2234.400
STRAND 1 09 Feb 05:28:28 05:33:07 37° 67° (ENE) 05:37:50 437.568
PRISM 09 Feb 05:36:32 05:38:19 13° 60° (ENE) 05:40:07 437.425
